• în Republica Moldova
  • Lista ţărilor
  • Pe 7 zile
  • Temperatura apei
  • Hartă satelitară
  • Meteo pe hartă
  • Widget-uri
  • user-avatar
    Intrare

    Meteo pe oră la Francistown

    Astăzi, 18 Martie, Luni

    Timp Temperatura Precipitaţii Vânt Presiune Umiditate
    00:00 +21°C° 0 mm 2 m/s 675 mmHg 67%
    01:00 +21°C° 0 mm 2 m/s 675 mmHg 68%
    02:00 +21°C° 0 mm 2 m/s 675 mmHg 69%
    03:00 +21°C° 0 mm 1 m/s 675 mmHg 71%
    04:00 +21°C° 0 mm 1 m/s 675 mmHg 72%
    05:00 +21°C° 0 mm 1 m/s 675 mmHg 74%
    06:00 +22°C° 0 mm 1 m/s 675 mmHg 70%
    07:00 +23°C° 0 mm 1 m/s 676 mmHg 66%
    08:00 +24°C° 0 mm 2 m/s 676 mmHg 66%
    09:00 +27°C° 0 mm 2 m/s 677 mmHg 57%
    10:00 +29°C° 0 mm 2 m/s 677 mmHg 48%
    11:00 +33°C° 0 mm 3 m/s 677 mmHg 39%
    12:00 +34°C° 0 mm 3 m/s 677 mmHg 34%
    13:00 +35°C° 0 mm 4 m/s 676 mmHg 28%
    14:00 +37°C° 0 mm 4 m/s 676 mmHg 23%
    15:00 +36°C° 0 mm 4 m/s 675 mmHg 24%
    16:00 +36°C° 0 mm 4 m/s 675 mmHg 24%
    17:00 +36°C° 0 mm 4 m/s 674 mmHg 24%
    18:00 +34°C° 0 mm 4 m/s 674 mmHg 28%
    19:00 +30°C° 0 mm 4 m/s 674 mmHg 33%
    20:00 +28°C° 0 mm 3 m/s 674 mmHg 37%
    21:00 +28°C° 0 mm 3 m/s 675 mmHg 40%
    22:00 +27°C° 0 mm 4 m/s 675 mmHg 42%
    23:00 +26°C° 0 mm 4 m/s 675 mmHg 45%

    Mâine, 19 Martie, Marţi

    Timp Temperatura Precipitaţii Vânt Presiune Umiditate
    00:00 +26°C° 0 mm 3 m/s 675 mmHg 47%
    01:00 +25°C° 0 mm 3 m/s 675 mmHg 50%
    02:00 +25°C° 0 mm 2 m/s 675 mmHg 53%
    03:00 +24°C° 0 mm 2 m/s 675 mmHg 55%
    04:00 +24°C° 0 mm 2 m/s 675 mmHg 57%
    05:00 +23°C° 0 mm 2 m/s 675 mmHg 59%
    06:00 +24°C° 0 mm 3 m/s 675 mmHg 56%
    07:00 +25°C° 0 mm 4 m/s 676 mmHg 52%
    08:00 +27°C° 0 mm 4 m/s 677 mmHg 48%
    09:00 +29°C° 0 mm 5 m/s 677 mmHg 41%
    10:00 +32°C° 0 mm 5 m/s 677 mmHg 34%
    11:00 +35°C° 0 mm 5 m/s 678 mmHg 26%
    12:00 +36°C° 0 mm 5 m/s 677 mmHg 25%
    13:00 +37°C° 0 mm 5 m/s 676 mmHg 23%
    14:00 +37°C° 0 mm 4 m/s 676 mmHg 21%
    15:00 +37°C° 0 mm 4 m/s 676 mmHg 21%
    16:00 +37°C° 0 mm 5 m/s 675 mmHg 21%
    17:00 +36°C° 0 mm 5 m/s 675 mmHg 22%
    18:00 +34°C° 0 mm 4 m/s 675 mmHg 27%
    19:00 +32°C° 0 mm 4 m/s 675 mmHg 32%
    20:00 +29°C° 0 mm 4 m/s 675 mmHg 37%
    21:00 +28°C° 0 mm 4 m/s 675 mmHg 39%
    22:00 +27°C° 0 mm 4 m/s 676 mmHg 42%
    23:00 +27°C° 0 mm 4 m/s 676 mmHg 45%

    Poimâine, 20 Martie, Miercuri

    Timp Temperatura Precipitaţii Vânt Presiune Umiditate
    00:00 +26°C° 0 mm 4 m/s 676 mmHg 49%
    01:00 +25°C° 0 mm 3 m/s 675 mmHg 52%
    02:00 +24°C° 0 mm 3 m/s 675 mmHg 56%
    03:00 +24°C° 0 mm 2 m/s 675 mmHg 57%
    04:00 +23°C° 0 mm 2 m/s 674 mmHg 58%
    05:00 +23°C° 0 mm 2 m/s 674 mmHg 59%
    06:00 +24°C° 0 mm 2 m/s 675 mmHg 56%
    07:00 +26°C° 0 mm 2 m/s 676 mmHg 52%
    08:00 +27°C° 0 mm 2 m/s 676 mmHg 49%
    09:00 +29°C° 0 mm 3 m/s 677 mmHg 42%
    10:00 +33°C° 0 mm 3 m/s 677 mmHg 34%
    11:00 +36°C° 0 mm 3 m/s 678 mmHg 27%
    12:00 +37°C° 0 mm 4 m/s 677 mmHg 25%
    13:00 +37°C° 0 mm 4 m/s 676 mmHg 24%
    14:00 +39°C° 0 mm 5 m/s 676 mmHg 22%
    15:00 +39°C° 0 mm 5 m/s 675 mmHg 22%
    16:00 +37°C° 0 mm 5 m/s 675 mmHg 23%
    17:00 +37°C° 0 mm 5 m/s 674 mmHg 23%
    18:00 +35°C° 0 mm 4 m/s 674 mmHg 27%
    19:00 +33°C° 0 mm 4 m/s 674 mmHg 32%
    20:00 +30°C° 0 mm 3 m/s 674 mmHg 36%
    21:00 +29°C° 0 mm 3 m/s 675 mmHg 38%
    22:00 +28°C° 0 mm 3 m/s 675 mmHg 39%
    23:00 +27°C° 0 mm 3 m/s 675 mmHg 41%

    21 Martie, Joi

    Timp Temperatura Precipitaţii Vânt Presiune Umiditate
    00:00 +27°C° 0 mm 3 m/s 675 mmHg 42%
    01:00 +26°C° 0 mm 3 m/s 674 mmHg 43%
    02:00 +26°C° 0 mm 3 m/s 674 mmHg 44%
    03:00 +25°C° 0 mm 3 m/s 674 mmHg 45%
    04:00 +25°C° 0 mm 2 m/s 674 mmHg 45%
    05:00 +25°C° 0 mm 2 m/s 674 mmHg 45%
    06:00 +26°C° 0 mm 2 m/s 675 mmHg 43%
    07:00 +27°C° 0 mm 2 m/s 676 mmHg 41%
    08:00 +28°C° 0 mm 2 m/s 677 mmHg 39%
    09:00 +30°C° 0 mm 2 m/s 677 mmHg 36%
    10:00 +33°C° 0 mm 3 m/s 677 mmHg 33%
    11:00 +35°C° 0 mm 3 m/s 677 mmHg 30%
    12:00 +36°C° 0 mm 3 m/s 677 mmHg 28%
    13:00 +37°C° 0 mm 2 m/s 676 mmHg 26%
    14:00 +38°C° 0 mm 2 m/s 676 mmHg 24%
    15:00 +38°C° 0 mm 2 m/s 675 mmHg 23%
    16:00 +38°C° 0 mm 2 m/s 675 mmHg 23%
    17:00 +38°C° 0 mm 3 m/s 675 mmHg 22%
    18:00 +36°C° 0 mm 3 m/s 675 mmHg 25%
    19:00 +35°C° 0 mm 3 m/s 675 mmHg 28%
    20:00 +33°C° 0 mm 3 m/s 675 mmHg 31%
    21:00 +32°C° 0 mm 4 m/s 675 mmHg 34%
    22:00 +30°C° 0 mm 4 m/s 676 mmHg 38%
    23:00 +28°C° 0 mm 5 m/s 676 mmHg 41%

    22 Martie, Vineri

    Timp Temperatura Precipitaţii Vânt Presiune Umiditate
    00:00 +27°C° 0 mm 4 m/s 676 mmHg 44%
    01:00 +26°C° 0 mm 3 m/s 675 mmHg 47%
    02:00 +25°C° 0 mm 2 m/s 675 mmHg 50%
    03:00 +25°C° 0 mm 2 m/s 675 mmHg 53%
    04:00 +24°C° 0 mm 2 m/s 675 mmHg 55%
    05:00 +23°C° 0 mm 2 m/s 675 mmHg 57%
    06:00 +24°C° 0 mm 2 m/s 676 mmHg 53%
    07:00 +25°C° 0 mm 3 m/s 677 mmHg 49%
    08:00 +26°C° 0 mm 4 m/s 677 mmHg 46%
    09:00 +29°C° 0 mm 5 m/s 678 mmHg 40%
    10:00 +32°C° 0 mm 6 m/s 678 mmHg 34%
    11:00 +34°C° 0 mm 7 m/s 679 mmHg 28%
    12:00 +35°C° 0 mm 7 m/s 678 mmHg 28%
    13:00 +36°C° 0 mm 7 m/s 678 mmHg 28%
    14:00 +38°C° 0 mm 6 m/s 677 mmHg 27%
    15:00 +36°C° 0 mm 7 m/s 677 mmHg 30%
    16:00 +36°C° 0 mm 7 m/s 677 mmHg 32%
    17:00 +35°C° 0 mm 8 m/s 676 mmHg 35%
    18:00 +33°C° 0 mm 8 m/s 677 mmHg 41%
    19:00 +31°C° 0 mm 9 m/s 677 mmHg 48%
    20:00 +28°C° 0 mm 9 m/s 678 mmHg 54%
    21:00 +27°C° 0 mm 9 m/s 678 mmHg 60%
    22:00 +26°C° 0 mm 9 m/s 679 mmHg 66%
    23:00 +23°C° 0 mm 9 m/s 680 mmHg 72%

    23 Martie, Sâmbătă

    Timp Temperatura Precipitaţii Vânt Presiune Umiditate
    00:00 +23°C° 0 mm 8 m/s 679 mmHg 72%
    01:00 +23°C° 0 mm 8 m/s 679 mmHg 72%
    02:00 +22°C° 0 mm 8 m/s 679 mmHg 73%
    03:00 +22°C° 0 mm 7 m/s 679 mmHg 74%
    04:00 +22°C° 0 mm 7 m/s 679 mmHg 75%
    05:00 +21°C° 0 mm 7 m/s 679 mmHg 76%
    06:00 +22°C° 0 mm 7 m/s 679 mmHg 75%
    07:00 +22°C° 0 mm 7 m/s 680 mmHg 74%
    08:00 +22°C° 0 mm 7 m/s 680 mmHg 73%
    09:00 +22°C° 0 mm 7 m/s 680 mmHg 71%
    10:00 +23°C° 0 mm 7 m/s 680 mmHg 68%
    11:00 +23°C° 0 mm 7 m/s 680 mmHg 66%
    12:00 +24°C° 0 mm 7 m/s 680 mmHg 61%
    13:00 +27°C° 0 mm 7 m/s 680 mmHg 56%
    14:00 +28°C° 0 mm 7 m/s 679 mmHg 51%
    15:00 +28°C° 0 mm 6 m/s 679 mmHg 51%
    16:00 +28°C° 0 mm 6 m/s 679 mmHg 50%
    17:00 +28°C° 0 mm 6 m/s 678 mmHg 50%
    18:00 +26°C° 0 mm 5 m/s 679 mmHg 55%
    19:00 +25°C° 0 mm 5 m/s 679 mmHg 61%
    20:00 +23°C° 0 mm 4 m/s 679 mmHg 66%
    21:00 +22°C° 0 mm 4 m/s 679 mmHg 69%
    22:00 +22°C° 0 mm 4 m/s 679 mmHg 72%
    23:00 +21°C° 0 mm 5 m/s 680 mmHg 75%
    Arată mai mult